Glasgow, United Kingdom

10:40 PM BST on July 25, 2017 (GMT +0100)
Glasgow

Weather History for EGPF - July, 2013

Change the Weather History Date:

Thursday, July 25, 2013

  Actual Average Record
Temperature  
Mean Temperature 64 °F -  
Max Temperature 69 °F 65 °F 82 °F (2006)
Min Temperature 59 °F 49 °F 42 °F (2015)
Degree Days  
Heating Degree Days 1    
Growing Degree Days 14 (Base 50)    
Moisture  
Dew Point 60 °F    
Average Humidity 88    
Maximum Humidity 100    
Minimum Humidity 73    
Precipitation  
Precipitation 0.00 in - - ()
Sea Level Pressure  
Sea Level Pressure 29.82 in    
Wind  
Wind Speed 4 mph ()    
Max Wind Speed 12 mph    
Max Gust Speed 22 mph    
Visibility 5.8 miles    
Events Fog , Rain , Thunderstorm    
Averages and records for this station are not official NWS values.
T = Trace of Precipitation, MM = Missing Value Source: Averaged Metar Reports

Daily Weather History Graph

Daily Weather History Graph

Search for Another Location

Airport or City:

Trip Planner

Search our weather history database for the weather conditions in past years. The results will help you decide how hot, cold, wet, or windy it might be!

Date:

Astronomy

Jul. 25, 2013 Rise Set
Actual Time 5:09 AM BST 9:37 PM BST
Civil Twilight 4:18 AM BST 10:28 PM BST
Nautical Twilight 2:56 AM BST 11:48 PM BST
Astronomical Twilight Sun does not set Sun does not set
Moon 10:15 PM BST 9:11 AM BST
Length of Visible Light 18h 09m
Length of Day
16h 27m
Waning Gibbous, 90% of the Moon is Illuminated
Jul 25
Waning Gibbous
Jul 29
Last Quarter
Aug 6
New
Aug 14
First Quarter
Aug 21
Full

Hourly Weather History & Observations

Time (BST) Temp. Dew Point Humidity Pressure Visibility Wind Dir Wind Speed Gust Speed Precip Events Conditions
12:20 AM 60.8 °F 57.2 °F 88% 29.86 in 6.2 mi Calm Calm - N/A   Partly Cloudy
12:50 AM 60.8 °F 57.2 °F 88% 29.89 in 6.2 mi NE 2.3 mph - N/A   Partly Cloudy
1:20 AM 60.8 °F 57.2 °F 88% 29.86 in 6.2 mi Calm Calm - N/A   Partly Cloudy
1:50 AM 59.0 °F 57.2 °F 94% 29.86 in 6.2 mi North 3.5 mph - N/A   Partly Cloudy
2:20 AM 60.8 °F 57.2 °F 88% 29.86 in 6.2 mi NE 4.6 mph - N/A   Partly Cloudy
2:50 AM 59.0 °F 57.2 °F 94% 29.86 in 6.2 mi NE 5.8 mph - N/A   Partly Cloudy
3:20 AM 59.0 °F 57.2 °F 94% 29.86 in 6.2 mi NE 6.9 mph - N/A Rain Light Rain
3:50 AM 59.0 °F 57.2 °F 94% 29.86 in 6.2 mi ENE 4.6 mph - N/A   Unknown
4:20 AM 59.0 °F 57.2 °F 94% 29.86 in 6.2 mi ENE 4.6 mph - N/A   Unknown
4:50 AM 59.0 °F 55.4 °F 88% 29.83 in - NE 4.6 mph - N/A   Clear
5:20 AM 59.0 °F 57.2 °F 94% 29.83 in 6.2 mi East 3.5 mph - N/A   Partly Cloudy
5:50 AM 60.8 °F 57.2 °F 88% 29.83 in 6.2 mi East 4.6 mph - N/A   Partly Cloudy
6:20 AM 60.8 °F 57.2 °F 88% 29.83 in 6.2 mi ENE 3.5 mph - N/A   Mostly Cloudy
6:50 AM 60.8 °F 57.2 °F 88% 29.83 in 6.2 mi NE 3.5 mph - N/A Rain Light Rain
7:20 AM 60.8 °F 59.0 °F 94% 29.83 in 6.2 mi Variable 2.3 mph - N/A   Mostly Cloudy
7:50 AM 60.8 °F 59.0 °F 94% 29.86 in 6.2 mi Calm Calm - N/A Rain Light Rain
8:20 AM 60.8 °F 59.0 °F 94% 29.86 in 3.7 mi East 4.6 mph - N/A Rain Rain
8:50 AM 60.8 °F 59.0 °F 94% 29.86 in 4.3 mi East 4.6 mph - N/A Rain Rain
9:20 AM 60.8 °F 59.0 °F 94% 29.83 in 3.7 mi NE 5.8 mph - N/A Rain Light Rain
9:50 AM 62.6 °F 60.8 °F 94% 29.83 in 6.2 mi ENE 5.8 mph - N/A   Mostly Cloudy
10:20 AM 62.6 °F 59.0 °F 88% 29.83 in 6.2 mi ENE 5.8 mph - N/A   Scattered Clouds
10:50 AM 64.4 °F 60.8 °F 88% 29.83 in 6.2 mi East 6.9 mph - N/A   Scattered Clouds
11:20 AM 66.2 °F 60.8 °F 83% 29.83 in 6.2 mi East 8.1 mph - N/A   Mostly Cloudy
11:50 AM 66.2 °F 60.8 °F 83% 29.83 in 6.2 mi ENE 9.2 mph - N/A   Mostly Cloudy
12:20 PM 66.2 °F 60.8 °F 83% 29.80 in 6.2 mi East 8.1 mph - N/A   Mostly Cloudy
12:50 PM 68.0 °F 62.6 °F 83% 29.80 in 6.2 mi NE 10.4 mph - N/A   Scattered Clouds
1:20 PM 68.0 °F 60.8 °F 78% 29.80 in 6.2 mi ENE 6.9 mph - N/A   Mostly Cloudy
1:50 PM 69.8 °F 60.8 °F 73% 29.80 in 6.2 mi ENE 6.9 mph - N/A   Mostly Cloudy
2:20 PM 69.8 °F 60.8 °F 73% 29.80 in 6.2 mi East 6.9 mph - N/A   Scattered Clouds
2:50 PM 68.0 °F 60.8 °F 78% 29.80 in 6.2 mi NE 11.5 mph - N/A   Mostly Cloudy
3:20 PM 66.2 °F 60.8 °F 83% 29.80 in - East 11.5 mph - N/A Rain Heavy Rain
3:50 PM 66.2 °F 62.6 °F 88% 29.80 in 6.2 mi NE 8.1 mph - N/A   Mostly Cloudy
4:20 PM 69.8 °F 64.4 °F 83% 29.77 in 6.2 mi ENE 8.1 mph - N/A Thunderstorm Scattered Clouds
4:50 PM 68.0 °F 62.6 °F 83% 29.80 in 6.2 mi East 8.1 mph 21.9 mph N/A Rain , Thunderstorm Rain
5:20 PM 64.4 °F 62.6 °F 94% 29.80 in 4.3 mi East 8.1 mph - N/A Rain , Thunderstorm Rain
5:50 PM 66.2 °F 62.6 °F 88% 29.80 in 6.2 mi ENE 5.8 mph - N/A Rain , Thunderstorm Light Rain
6:20 PM 66.2 °F 60.8 °F 83% 29.80 in 6.2 mi ENE 4.6 mph - N/A Rain , Thunderstorm Light Rain
6:50 PM 64.4 °F 62.6 °F 94% 29.80 in 6.2 mi Variable 2.3 mph - N/A   Scattered Clouds
7:20 PM 66.2 °F 60.8 °F 83% 29.80 in 6.2 mi Variable 2.3 mph - N/A   Partly Cloudy
7:50 PM 68.0 °F 60.8 °F 78% 29.80 in 6.2 mi Variable 2.3 mph - N/A   Partly Cloudy
8:20 PM 68.0 °F 60.8 °F 78% 29.80 in 6.2 mi Variable 2.3 mph - N/A   Partly Cloudy
8:50 PM 66.2 °F 62.6 °F 88% 29.80 in 6.2 mi NE 6.9 mph - N/A   Scattered Clouds
9:20 PM 64.4 °F 60.8 °F 88% 29.80 in 6.2 mi ENE 5.8 mph - N/A   Scattered Clouds
9:50 PM 62.6 °F 60.8 °F 94% 29.80 in 6.2 mi NE 4.6 mph - N/A   Scattered Clouds
10:20 PM 60.8 °F 59.0 °F 94% 29.80 in 4.3 mi ENE 5.8 mph - N/A   Scattered Clouds
10:50 PM 60.8 °F 59.0 °F 94% 29.80 in 3.7 mi Variable 3.5 mph - N/A Fog Fog
11:20 PM 60.8 °F 59.0 °F 94% 29.80 in 4.3 mi Variable 3.5 mph - N/A   Scattered Clouds
11:50 PM 59.0 °F 59.0 °F 100% 29.83 in 4.3 mi Calm Calm - N/A   Mostly Cloudy